Weather History for Murray, KY

Change the Weather History Date:

Tuesday, January 15, 2013

  Actual Average (KPAH) Record (KPAH)
Temperature  
Mean Temperature 26 °F 34 °F  
Max Temperature 30 °F 43 °F 68 °F (1953)
Min Temperature 23 °F 26 °F -1 °F (1972)
Degree Days  
Heating Degree Days 38 31  
Month to date heating degree days 462  
Since 1 July heating degree days 2093  
Cooling Degree Days 0 0  
Month to date cooling degree days 0  
Year to date cooling degree days 0  
Moisture  
Dew Point 24 °F    
Average Humidity 86    
Maximum Humidity 100    
Minimum Humidity 75    
Precipitation  
Precipitation 0.02 in 0.11 in 1.07 in (1997)
Month to date precipitation 1.78  
Year to date precipitation 1.78  
Snow  
Snow 0.00 in 0.10 in 0.40 in (1965)
Month to date snowfall 1.3  
Since 1 July snowfall 3.6  
Snow Depth -    
Sea Level Pressure  
Sea Level Pressure 30.20 in    
Wind  
Wind Speed 12 mph (NNE)    
Max Wind Speed 17 mph    
Max Gust Speed 21 mph    
Visibility 8 miles    
Events      
T = Trace of Precipitation, MM = Missing Value Source: NWS Daily Summary

Daily Weather History Graph

Daily Weather History Graph

Search for Another Location

Airport:

Trip Planner

Search our weather history database for the weather conditions in past years. The results will help you decide how hot, cold, wet, or windy it might be!

Date:

Astronomy

Jan. 15, 2013 Rise Set
Actual Time 7:04 AM CST 5:01 PM CST
Civil Twilight 6:36 AM CST 5:29 PM CST
Nautical Twilight 6:04 AM CST 6:01 PM CST
Astronomical Twilight 5:33 AM CST 6:32 PM CST
Moon 9:18 AM CST (1/15) 9:41 PM CST (1/15)
Length of Visible Light 10h 53m
Length of Day
9h 56m
Waxing Crescent, 19% of the Moon is Illuminated
Jan 15
Waxing Crescent
Jan 18
First Quarter
Jan 26
Full
Feb 3
Last Quarter
Feb 10
New

Hourly Weather History & Observations

Time (CST) Temp. Windchill Dew Point Humidity Pressure Visibility Wind Dir Wind Speed Gust Speed Precip Events Conditions
12:15 AM 24.8 °F 13.4 °F 21.2 °F 86% 30.31 in 10.0 mi NNE 12.7 mph 17.3 mph N/A   Overcast
12:35 AM 24.8 °F 14.0 °F 21.2 °F 86% 30.31 in 10.0 mi NNE 11.5 mph 16.1 mph N/A   Overcast
12:55 AM 24.8 °F 13.4 °F 21.2 °F 86% 30.31 in 10.0 mi NNE 12.7 mph - N/A   Overcast
1:15 AM 24.8 °F 12.4 °F 21.2 °F 86% 30.31 in 10.0 mi NNE 15.0 mph - N/A   Overcast
1:35 AM 24.8 °F 14.0 °F 21.2 °F 86% 30.31 in 10.0 mi North 11.5 mph - N/A   Overcast
1:55 AM 23.0 °F 12.4 °F 21.2 °F 93% 30.32 in 10.0 mi North 10.4 mph - N/A   Scattered Clouds
2:15 AM 23.0 °F 11.7 °F 21.2 °F 93% 30.31 in 10.0 mi NNE 11.5 mph - N/A   Clear
2:35 AM 23.0 °F 12.4 °F 21.2 °F 93% 30.31 in 10.0 mi NNE 10.4 mph - N/A   Clear
2:55 AM 23.0 °F 13.1 °F 19.4 °F 86% 30.30 in 10.0 mi NNE 9.2 mph - N/A   Clear
3:15 AM 23.0 °F 13.9 °F 19.4 °F 86% 30.30 in 10.0 mi NE 8.1 mph - N/A   Clear
3:55 AM 23.0 °F 13.1 °F 21.2 °F 93% 30.28 in 10.0 mi NNE 9.2 mph - N/A   Partly Cloudy
4:35 AM 23.0 °F 11.7 °F 21.2 °F 93% 30.27 in 10.0 mi NE 11.5 mph - N/A   Mostly Cloudy
4:55 AM 24.8 °F 14.0 °F 21.2 °F 86% 30.27 in 10.0 mi NE 11.5 mph - N/A   Overcast
5:15 AM 24.8 °F 14.6 °F 21.2 °F 86% 30.27 in 10.0 mi NE 10.4 mph - N/A   Overcast
5:35 AM 24.8 °F 14.0 °F 21.2 °F 86% 30.27 in 10.0 mi NE 11.5 mph 16.1 mph N/A   Overcast
5:55 AM 24.8 °F 14.0 °F 21.2 °F 86% 30.26 in 10.0 mi NE 11.5 mph - N/A   Overcast
6:15 AM 24.8 °F 14.6 °F 23.0 °F 93% 30.26 in 10.0 mi NE 10.4 mph - N/A   Overcast
6:35 AM 24.8 °F 14.0 °F 23.0 °F 93% 30.26 in 10.0 mi ENE 11.5 mph - N/A   Overcast
6:55 AM 24.8 °F 13.4 °F 23.0 °F 93% 30.27 in 10.0 mi NE 12.7 mph - N/A   Overcast
7:15 AM 24.8 °F 14.6 °F 23.0 °F 93% 30.28 in 9.0 mi NE 10.4 mph - N/A   Overcast
7:35 AM 24.8 °F 12.9 °F 21.2 °F 86% 30.27 in 8.0 mi NE 13.8 mph - N/A   Overcast
7:55 AM 24.8 °F 11.9 °F 21.2 °F 86% 30.28 in 9.0 mi NE 16.1 mph 19.6 mph N/A   Overcast
8:15 AM 24.8 °F 12.4 °F 21.2 °F 86% 30.28 in 9.0 mi NE 15.0 mph 18.4 mph N/A   Overcast
8:55 AM 24.8 °F 11.9 °F 21.2 °F 86% 30.27 in 8.0 mi NE 16.1 mph 20.7 mph N/A   Overcast
9:15 AM 24.8 °F 13.4 °F 23.0 °F 93% 30.28 in 8.0 mi ENE 12.7 mph 16.1 mph N/A   Mostly Cloudy
9:35 AM 26.6 °F 16.8 °F 23.0 °F 86% 30.27 in 9.0 mi ENE 10.4 mph - N/A   Partly Cloudy
9:55 AM 26.6 °F 16.8 °F 23.0 °F 86% 30.26 in 10.0 mi ENE 10.4 mph - N/A   Clear
10:15 AM 26.6 °F 16.2 °F 21.2 °F 80% 30.25 in 10.0 mi NE 11.5 mph - N/A   Clear
10:35 AM 28.4 °F 17.5 °F 23.0 °F 80% 30.23 in 10.0 mi NE 13.8 mph - N/A   Clear
10:55 AM 28.4 °F 18.0 °F 23.0 °F 80% 30.19 in 10.0 mi ENE 12.7 mph - N/A   Clear
11:15 AM 28.4 °F 19.7 °F 23.0 °F 80% 30.19 in 10.0 mi NE 9.2 mph - N/A   Scattered Clouds
11:35 AM 28.4 °F 18.5 °F 23.0 °F 80% 30.19 in 10.0 mi NNE 11.5 mph - N/A   Mostly Cloudy
11:55 AM 28.4 °F 17.5 °F 23.0 °F 80% 30.16 in 10.0 mi NNE 13.8 mph - N/A   Overcast
12:15 PM 28.4 °F 17.0 °F 23.0 °F 80% 30.20 in 10.0 mi North 15.0 mph 18.4 mph N/A   Overcast
12:35 PM 28.4 °F 17.5 °F 23.0 °F 80% 30.19 in 10.0 mi North 13.8 mph - N/A   Overcast
12:55 PM 28.4 °F 18.5 °F 23.0 °F 80% 30.21 in 10.0 mi North 11.5 mph - N/A   Overcast
1:35 PM 28.4 °F 17.5 °F 23.0 °F 80% 30.17 in 10.0 mi NNE 13.8 mph - N/A   Overcast
1:55 PM 30.2 °F 19.8 °F 23.0 °F 75% 30.17 in 10.0 mi North 13.8 mph - N/A   Mostly Cloudy
2:15 PM 30.2 °F 20.2 °F 23.0 °F 75% 30.16 in 10.0 mi NNE 12.7 mph 16.1 mph N/A   Mostly Cloudy
2:35 PM 30.2 °F 20.8 °F 23.0 °F 75% 30.16 in 8.0 mi North 11.5 mph - N/A   Scattered Clouds
3:15 PM 30.2 °F 19.3 °F 23.0 °F 75% 30.15 in 10.0 mi NNE 15.0 mph 19.6 mph N/A   Mostly Cloudy
3:35 PM 30.2 °F 18.5 °F 23.0 °F 75% 30.15 in 10.0 mi NNE 17.3 mph 20.7 mph N/A   Overcast
3:55 PM 30.2 °F 20.8 °F 24.8 °F 80% 30.17 in 5.0 mi NNE 11.5 mph 19.6 mph N/A   Overcast
4:15 PM 30.2 °F 21.3 °F 24.8 °F 80% 30.16 in 5.0 mi NE 10.4 mph - N/A   Overcast
4:35 PM 30.2 °F 21.9 °F 24.8 °F 80% 30.20 in 9.0 mi North 9.2 mph - N/A   Overcast
4:55 PM 30.2 °F 21.3 °F 24.8 °F 80% 30.15 in 4.0 mi NE 10.4 mph - N/A   Overcast
5:15 PM 30.2 °F 20.2 °F 24.8 °F 80% 30.13 in 9.0 mi NE 12.7 mph - N/A   Overcast
5:35 PM 30.2 °F 20.2 °F 24.8 °F 80% 30.13 in 10.0 mi NE 12.7 mph 16.1 mph N/A   Overcast
5:55 PM 30.2 °F 21.3 °F 24.8 °F 80% 30.13 in 9.0 mi ENE 10.4 mph - N/A   Overcast
6:15 PM 30.2 °F 20.8 °F 26.6 °F 86% 30.13 in 5.0 mi ENE 11.5 mph - 0.01 in   Overcast
6:35 PM 30.2 °F 20.8 °F 26.6 °F 86% 30.10 in 8.0 mi ENE 11.5 mph - 0.01 in   Overcast
6:55 PM 30.2 °F 20.8 °F 26.6 °F 86% 30.11 in 5.0 mi ENE 11.5 mph - 0.02 in   Overcast
7:15 PM 30.2 °F 20.8 °F 26.6 °F 86% 30.11 in 8.0 mi NE 11.5 mph - N/A   Overcast
7:35 PM 30.2 °F 21.9 °F 26.6 °F 86% 30.11 in 7.0 mi NNE 9.2 mph - N/A   Overcast
7:55 PM 30.2 °F 21.3 °F 26.6 °F 86% 30.12 in 7.0 mi North 10.4 mph - N/A   Overcast
8:15 PM 30.2 °F 21.9 °F 28.4 °F 93% 30.11 in 6.0 mi North 9.2 mph - N/A   Overcast
8:35 PM 30.2 °F 20.8 °F 28.4 °F 93% 30.11 in 5.0 mi North 11.5 mph - N/A   Overcast
8:55 PM 28.4 °F 19.7 °F 26.6 °F 93% 30.12 in 5.0 mi North 9.2 mph - N/A   Overcast
9:15 PM 28.4 °F 19.7 °F 26.6 °F 93% 30.12 in 5.0 mi North 9.2 mph - N/A   Overcast
9:35 PM 28.4 °F 20.4 °F 28.4 °F 100% 30.12 in 4.0 mi North 8.1 mph - N/A   Overcast
9:55 PM 28.4 °F 19.1 °F 28.4 °F 100% 30.11 in 4.0 mi North 10.4 mph - N/A   Overcast
10:15 PM 28.4 °F 18.5 °F 28.4 °F 100% 30.10 in 3.0 mi North 11.5 mph - N/A   Overcast
10:35 PM 28.4 °F 19.7 °F 26.6 °F 93% 30.10 in 4.0 mi North 9.2 mph 16.1 mph N/A   Overcast
10:55 PM 28.4 °F 18.0 °F 26.6 °F 93% 30.09 in 5.0 mi NNE 12.7 mph - N/A   Overcast
11:15 PM 28.4 °F 18.5 °F 26.6 °F 93% 30.06 in 5.0 mi North 11.5 mph - N/A   Overcast
11:35 PM 28.4 °F 19.7 °F 26.6 °F 93% 30.09 in 5.0 mi North 9.2 mph - N/A   Overcast
11:55 PM 28.4 °F 18.5 °F 26.6 °F 93% 30.08 in 5.0 mi North 11.5 mph - N/A   Overcast